Location: Unspecified
(0.0000°N, 0.0000°E)
Time: 09:01:06
(UTC+02:00)

ARIANE 5 R/B - Visible Passes

Search period start: 30 July 2014 00:00
Search period end: 09 August 2014 00:00
Orbit: 661 x 38441 km, 7.3° (Epoch: 29 July)

Date Brightness Start Highest point End Pass type
(mag) Time Alt. Az. Time Alt. Az. Time Alt. Az.
30 Jul 9.2 16:45:41 10° E 19:32:02 25° E 20:53:02 10° E visible
31 Jul 11.0 22:26:55 10° W 23:27:45 16° W 01:05:06 10° W visible
01 Aug 10.9 21:01:51 10° W 22:30:44 30° W 01:58:47 10° W visible
02 Aug 4.2 07:24:22 10° W 07:34:15 45° NNW 07:38:03 10° ENE visible
02 Aug 10.7 19:52:34 10° W 21:32:24 45° W 02:44:19 10° W visible
03 Aug 4.5 06:27:19 24° W 06:36:07 58° NNW 06:40:47 10° ENE visible
03 Aug 5.0 18:48:41 10° W 05:37:32 70° NNW 05:43:38 10° ENE visible
04 Aug 5.7 17:47:28 10° W 04:38:21 79° N 04:46:26 10° ENE visible
05 Aug 6.2 16:47:48 10° W 03:44:00 47° ENE 03:49:04 10° E visible
06 Aug 7.0 15:49:07 10° W 02:49:39 20° E 02:51:25 10° E visible
07 Aug 7.4 14:51:04 10° W 15:08:01 88° S 01:16:14 84° SW visible
08 Aug 6.8 13:53:27 10° W 14:04:43 88° N 00:00:00 83° SE visible
